Home   Weather   Madrid   Past weeks
Flag for Spain

Past Weather in Madrid, Spain — Yesterday and Last 2 Weeks

Now
57 °F

Passing clouds.


Feels Like: 56 °F
Forecast: 64 / 44 °F
Wind: 7 mph from Southwest

Location: Madrid / Cuatro Vientos

Current Time: Oct 15, 2019 at 2:18:06 pm

Latest Report: Oct 15, 2019 at 1:30 pm


Visibility: N/A

Pressure: 30.18 "Hg (27.91 "Hg at 658m altitude)

Humidity: 55%

Dew Point: 41 °F

Location of MadridLocation

Past Weather in Madrid — Graph

°F

Madrid Temperature Yesterday

Maximum temperature yesterday: 66 °F (at 8:30 am)
Minimum temperature yesterday: 50 °F (at 10:00 pm)
Average temperature yesterday: 60 °F

High & Low Weather Summary for the Past Weeks

 TemperatureHumidityPressure
High86 °F (Oct 8, 5:30 pm)94% (Oct 13, 7:30 am)30.21 "Hg (Oct 13, 7:30 am)
Low43 °F (Oct 15, 7:30 am)18% (Sep 30, 5:00 pm)29.86 "Hg (Oct 14, 7:00 am)
Average70 °F48%30.08 "Hg
* Reported Sep 30 1:00 pm — Oct 15 1:00 pm, Madrid. Weather by CustomWeather, © 2019

Note: Actual official high and low records may vary slightly from our data, if they occured in-between our weather recording intervals... More about our weather records

Advertising

Madrid Weather History for the Previous 24 Hours

Scroll right to see more
 ConditionsComfort  
Time TempWeatherWind HumidityBarometerVisibility
1:00 pm
Tue, Oct 15
57 °FPassing clouds.10 mph55%30.18 "HgN/A
12:30 pm57 °FPassing clouds.9 mph55%30.18 "HgN/A
12:00 pm55 °FPassing clouds.10 mph55%30.18 "HgN/A
11:30 am54 °FPassing clouds.7 mph58%30.18 "HgN/A
10:30 am52 °FSunny.9 mph62%30.18 "Hg10 mi
10:00 am50 °FSunny.9 mph67%30.15 "Hg10 mi
9:30 am48 °FSunny.9 mph71%30.15 "Hg10 mi
9:00 am46 °FSunny.6 mph76%30.15 "Hg10 mi
8:30 am45 °FSunny.7 mph76%30.12 "Hg10 mi
8:00 am45 °FClear.10 mph76%30.12 "Hg10 mi
7:30 am43 °FClear.7 mph81%30.12 "Hg10 mi
7:00 am45 °FClear.8 mph76%30.12 "Hg10 mi
10:00 pm
Mon, Oct 14
50 °FPassing clouds.12 mph94%30.04 "HgN/A
9:30 pm52 °FPassing clouds.9 mph94%30.01 "HgN/A
9:00 pm52 °FPartly cloudy.12 mph94%30.01 "HgN/A
8:30 pm52 °FPassing clouds.12 mph94%30.01 "HgN/A
8:00 pm52 °FPartly cloudy.13 mph94%30.01 "HgN/A
7:30 pm52 °FLight rain. Partly sunny.16 mph88%29.98 "HgN/A
7:00 pm52 °FRain. Overcast.20 mph88%29.98 "Hg4 mi
6:30 pm52 °FLight rain. Broken clouds.24 mph94%29.98 "Hg5 mi
6:13 pm52 °FLight rain. Broken clouds.25 mph94%29.98 "Hg3 mi
5:52 pm59 °FRain. Broken clouds.17 mph63%29.95 "Hg2 mi
5:30 pm64 °FScattered clouds.14 mph46%29.92 "HgN/A
5:00 pm64 °FPassing clouds.16 mph46%29.92 "HgN/A
4:30 pm64 °FPassing clouds.14 mph49%29.92 "HgN/A
4:00 pm66 °FScattered clouds.15 mph46%29.92 "HgN/A
3:30 pm66 °FScattered clouds.18 mph46%29.92 "HgN/A
3:00 pm66 °FScattered clouds.16 mph49%29.92 "HgN/A
2:30 pm66 °FScattered clouds.17 mph52%29.92 "HgN/A
2:00 pm64 °FScattered clouds.17 mph60%29.95 "HgN/A
Weather by CustomWeather, © 2019

See weather overview